Regional Weather Roundup
Issued by NWS Charleston, WV

Home | Current Version | Previous Version | Text Only | Print | Product List | Glossary On
Versions: 1 2 3 4 5 6 7 8 9 10 11 12 13 14 15 16 17 18 19 20 21 22 23 24 25 26 27 28 29 30 31 32 33 34 35 36 37 38 39 40 41 42 43 44 45 46 47 48 49 50
000
ASUS41 KRLX 032310
RWRRLX
West Virginia Regional Weather Roundup
National Weather Service Charleston WV
700 PM EDT MON AUG 03 2015

Note: "fair" indicates few or no clouds below 12,000 feet with no
significant weather and/or obstructions to visibility.

WVZ003-040000-
Northern Panhandle of West Virginia

CITY           SKY/WX    TMP DP  RH WIND       PRES   REMARKS
WHEELING       PTSUNNY   73  60  63 SE7       29.83F
$$

WVZ009-040000-
Northwest West Virginia

CITY           SKY/WX    TMP DP  RH WIND       PRES   REMARKS
PARKERSBURG    MOSUNNY   83  65  54 SW6       29.87S
$$

WVZ006-040000-
Western West Virginia

CITY           SKY/WX    TMP DP  RH WIND       PRES   REMARKS
HUNTINGTON     SUNNY     84  68  58 W7        29.87R
$$

WVZ015-040000-
West Central West Virginia

CITY           SKY/WX    TMP DP  RH WIND       PRES   REMARKS
CHARLESTON     MOSUNNY   85  65  51 W9        29.88R
$$

WVZ022-031-040000-
North Central West Virginia

CITY           SKY/WX    TMP DP  RH WIND       PRES   REMARKS
CLARKSBURG     MOSUNNY   82  61  48 SW12      29.86R
MORGANTOWN     PTSUNNY   84  58  40 SW7       29.86S
$$

WVZ025-035-042-045-040000-
Southern West Virginia

CITY           SKY/WX    TMP DP  RH WIND       PRES   REMARKS
BECKLEY        SUNNY     80  60  50 W9        29.99R
LOGAN          NOT AVBL
BLUEFIELD      SUNNY     82  58  43 W9        30.03R
LEWISBURG      SUNNY     83  58  41 W7        29.98R
$$

WVZ047-040000-
Northern Mountains of West Virginia

CITY           SKY/WX    TMP DP  RH WIND       PRES   REMARKS
ELKINS         MOSUNNY   81  56  42 W7        29.92R
$$

WVZ052-040000-
Eastern Panhandle of West Virginia

CITY           SKY/WX    TMP DP  RH WIND       PRES   REMARKS
MARTINSBURG    CLOUDY    88  58  36 W6        29.81S
PETERSBURG     SUNNY     85  63  48 W3        29.85R
$$


USA.gov is the U.S. government's official web portal to all federal, state and local government web resources and services.